sat.trackr.live / text

‹ back to catalog

STARLINK-3505

NORAD 51750 · 2022-016AN

PAYLOAD ACTIVE UNKNOWN

§ Identity

Operator
Country
US
Launch date
2022-02-21
Launch site
AFETR
Launch vehicle
Mass (kg)
RCS (m²)

Purposes: comms

External: N2YO · Heavens-Above · Gunter

§ Orbital elements

Epoch: 2026-05-24T22:39:35.920800Z

Period
95.44 min
Inclination
53.2156°
Eccentricity
0.0001466
Mean motion
15.08839403 rev/d
Perigee alt
538.7 km
Apogee alt
540.8 km
Semi-major
6,917.9 km
B*
4.4278e-5
RAAN
326.8124°
Arg perigee
89.6918°
Mean anomaly
270.4242°
Rev number
23,521

§ Raw data

STARLINK-35051 51750U 22016AN  26144.94416575  .00000417  00000+0  44278-4 0  99972 51750  53.2156 326.8124 0001466  89.6918 270.4242 15.08839403235211

JSON: /api/v1/satellites/51750 · /tle

For live sub-satellite position, see the globe view (requires WebGL).

§ Visibility from observer

Set your observer location to see the next 7 days of passes ≥ 10°. The values pass through the URL so the page stays shareable.

No JS? Fill the form by hand. The geolocation button needs JavaScript.